Weather History for YBCS - April, 2013

Change the Weather History Date:

Tuesday, April 9, 2013

  Actual Average Record
Temperature  
Mean Temperature 76 °F -  
Max Temperature 79 °F 83 °F 88 °F (2015)
Min Temperature 73 °F 70 °F 66 °F (1997)
Cooling Degree Days 11    
Growing Degree Days 26 (Base 50)    
Moisture  
Dew Point 72 °F    
Average Humidity 90    
Maximum Humidity 100    
Minimum Humidity 78    
Precipitation  
Precipitation 0.79 in 0.25 in - ()
Sea Level Pressure  
Sea Level Pressure 29.87 in    
Wind  
Wind Speed 13 mph ()    
Max Wind Speed 18 mph    
Max Gust Speed -    
Visibility 4.8 miles    
Events Rain    
Averages and records for this station are not official NWS values.
T = Trace of Precipitation, MM = Missing Value Source: Averaged Metar Reports

Daily Weather History Graph

Daily Weather History Graph

Search for Another Location

Airport or City:

Trip Planner

Search our weather history database for the weather conditions in past years. The results will help you decide how hot, cold, wet, or windy it might be!

Date:

Astronomy

Apr. 09, 2013 Rise Set
Actual Time 6:24 AM AEST 6:12 PM AEST
Civil Twilight 6:02 AM AEST 6:34 PM AEST
Nautical Twilight 5:37 AM AEST 6:59 PM AEST
Astronomical Twilight 5:12 AM AEST 7:24 PM AEST
Moon 5:06 AM AEST (4/9) 5:17 PM AEST (4/9)
Length of Visible Light 12h 31m
Length of Day
11h 48m
Waning Crescent, 2% of the Moon is Illuminated
Apr 9
Waning Crescent
Apr 10
New
Apr 18
First Quarter
Apr 26
Full
May 2
Last Quarter

Hourly Weather History & Observations

Time (AEST) Temp. Dew Point Humidity Pressure Visibility Wind Dir Wind Speed Gust Speed Precip Events Conditions
12:00 AM 75 °F 72 °F 88% 29.93 in - South 13.8 mph - -   Overcast
12:00 AM 75.2 °F 71.6 °F 89% 29.92 in 3.7 mi South 13.8 mph - N/A Rain Light Rain Showers
12:30 AM 75.2 °F 71.6 °F 89% 29.92 in 6.2 mi South 16.1 mph - N/A   Mostly Cloudy
1:00 AM 74 °F 72 °F 93% 29.92 in - South 15.0 mph - -  
1:00 AM 73.4 °F 71.6 °F 94% 29.92 in 5.6 mi South 15.0 mph - N/A Rain Light Rain Showers
1:30 AM 73.4 °F 73.4 °F 100% 29.89 in 5.6 mi South 12.7 mph - N/A Rain Light Rain Showers
2:00 AM 73.4 °F 71.6 °F 94% 29.89 in 6.2 mi South 15.0 mph - N/A   Mostly Cloudy
2:30 AM 73.4 °F 71.6 °F 94% 29.86 in 5.6 mi South 16.1 mph - N/A   Mostly Cloudy
2:38 AM 73.4 °F 71.6 °F 94% 29.86 in 5.6 mi South 13.8 mph - N/A   Mostly Cloudy
3:00 AM 74 °F 72 °F 91% 29.88 in - South 16.1 mph - -   Overcast
3:00 AM 73.4 °F 71.6 °F 94% 29.86 in 6.2 mi South 16.1 mph - N/A Rain Light Rain Showers
3:30 AM 75.2 °F 71.6 °F 89% 29.86 in 6.2 mi South 13.8 mph - N/A   Mostly Cloudy
4:00 AM 75 °F 71 °F 85% 29.85 in - South 13.8 mph - -  
4:00 AM 75.2 °F 71.6 °F 89% 29.83 in 6.2 mi South 13.8 mph - N/A   Scattered Clouds
4:30 AM 75.2 °F 71.6 °F 89% 29.86 in 6.2 mi SSE 12.7 mph - N/A   Mostly Cloudy
5:00 AM 75.2 °F 71.6 °F 89% 29.86 in 6.2 mi SSE 12.7 mph - N/A   Mostly Cloudy
5:30 AM 75.2 °F 71.6 °F 89% 29.86 in 5.0 mi SSE 9.2 mph - N/A Rain Light Rain Showers
6:00 AM 74 °F 72 °F 92% 29.88 in 4 mi South 12.7 mph - - Rain Light Rain Showers
6:00 AM 75.2 °F 71.6 °F 89% 29.86 in 3.7 mi South 12.7 mph - N/A Rain Light Rain Showers
6:30 AM 75.2 °F 71.6 °F 89% 29.89 in 3.7 mi South 13.8 mph - N/A Rain Light Rain Showers
7:00 AM 75 °F 72 °F 89% 29.89 in - SSE 12.7 mph - -  
7:00 AM 75.2 °F 71.6 °F 89% 29.89 in 5.0 mi SSE 12.7 mph - N/A Rain Light Rain Showers
7:30 AM 75.2 °F 71.6 °F 89% 29.89 in 5.0 mi SSE 17.3 mph - N/A Rain Light Rain Showers
7:39 AM 75.2 °F 71.6 °F 89% 29.89 in 3.1 mi SSE 17.3 mph - N/A Rain Light Rain Showers
8:00 AM 75.2 °F 73.4 °F 94% 29.89 in 3.7 mi SSE 16.1 mph - N/A Rain Light Rain
8:30 AM 75.2 °F 73.4 °F 94% 29.92 in 5.0 mi South 13.8 mph - N/A   Overcast
9:00 AM 76 °F 73 °F 86% 29.93 in 6 mi South 15.0 mph - -   Mostly Cloudy
9:00 AM 77.0 °F 73.4 °F 89% 29.92 in 5.6 mi South 15.0 mph - N/A   Mostly Cloudy
9:14 AM 75.2 °F 73.4 °F 94% 29.92 in 3.1 mi SSE 13.8 mph - N/A Rain Light Rain
9:30 AM 75.2 °F 73.4 °F 94% 29.92 in 2.5 mi SE 12.7 mph - N/A Rain Light Rain
10:00 AM 76 °F 74 °F 90% 29.94 in - South 13.8 mph - -  
10:00 AM 75.2 °F 73.4 °F 94% 29.92 in 3.1 mi South 13.8 mph - N/A Rain Light Rain
10:30 AM 77.0 °F 73.4 °F 89% 29.92 in 6.2 mi South 15.0 mph - N/A   Mostly Cloudy
11:00 AM 77.0 °F 73.4 °F 89% 29.92 in 6.2 mi South 15.0 mph - N/A   Overcast
11:30 AM 78.8 °F 73.4 °F 83% 29.92 in 6.2 mi South 13.8 mph - N/A   Overcast
12:00 PM 79 °F 73 °F 78% 29.90 in 6 mi SSE 15.0 mph - -   Overcast
12:00 PM 78.8 °F 73.4 °F 83% 29.89 in 6.2 mi SSE 15.0 mph - N/A   Overcast
12:30 PM 78.8 °F 71.6 °F 78% 29.89 in 6.2 mi SSE 18.4 mph - N/A   Overcast
1:00 PM 79 °F 73 °F 78% 29.88 in - SSE 15.0 mph - -  
1:00 PM 78.8 °F 73.4 °F 83% 29.86 in 5.0 mi SSE 15.0 mph - N/A   Overcast
1:52 PM 78.8 °F 71.6 °F 78% 29.86 in 3.7 mi SSE 13.8 mph - N/A   Overcast
2:00 PM 77.0 °F 73.4 °F 89% 29.83 in 3.7 mi SSE 17.3 mph - N/A Rain Light Rain Showers
2:12 PM 77.0 °F 73.4 °F 89% 29.83 in 2.5 mi SSE 16.1 mph - N/A Rain Rain Showers
2:30 PM 77.0 °F 73.4 °F 89% 29.83 in 3.7 mi SSE 16.1 mph - N/A   Overcast
3:00 PM 76 °F 74 °F 90% 29.83 in 7 mi South 16.1 mph - -   Overcast
3:00 PM 77.0 °F 73.4 °F 89% 29.83 in 6.2 mi South 16.1 mph - N/A   Overcast
3:30 PM 75.2 °F 73.4 °F 94% 29.83 in 3.7 mi SSE 12.7 mph - N/A Rain Light Rain Showers
4:00 PM 75 °F 73 °F 90% 29.83 in - South 12.7 mph - -  
4:00 PM 75.2 °F 73.4 °F 94% 29.80 in 3.1 mi South 12.7 mph - N/A Rain Light Rain
4:09 PM 75.2 °F 73.4 °F 94% 29.83 in 5.0 mi South 10.4 mph - N/A   Overcast
4:18 PM 75.2 °F 71.6 °F 89% 29.83 in 3.1 mi South 10.4 mph - N/A Rain Light Rain
4:30 PM 75.2 °F 73.4 °F 94% 29.83 in 3.1 mi South 9.2 mph - N/A Rain Light Rain
5:00 PM 75.2 °F 71.6 °F 89% 29.83 in 3.7 mi South 12.7 mph - N/A Rain Light Rain
5:30 PM 73.4 °F 71.6 °F 94% 29.83 in 3.7 mi South 10.4 mph - N/A Rain Light Rain
6:00 PM 74 °F 72 °F 91% 29.85 in - South 13.8 mph - -   Overcast
6:00 PM 73.4 °F 71.6 °F 94% 29.83 in 3.1 mi South 13.8 mph - N/A Rain Light Rain
6:30 PM 73.4 °F 71.6 °F 94% 29.83 in 5.6 mi South 12.7 mph - N/A Rain Light Rain
7:00 PM 74 °F 72 °F 91% 29.86 in - SSE 17.3 mph - -  
7:00 PM 73.4 °F 71.6 °F 94% 29.83 in 5.0 mi SSE 17.3 mph - N/A Rain Light Rain
7:30 PM 73.4 °F 71.6 °F 94% 29.86 in 6.2 mi South 12.7 mph - N/A Rain Light Rain
8:00 PM 73.4 °F 71.6 °F 94% 29.86 in 6.2 mi South 13.8 mph - N/A   Overcast
8:30 PM 73.4 °F 71.6 °F 94% 29.86 in 5.0 mi South 12.7 mph - N/A Rain Light Rain
9:00 PM 74 °F 71 °F 88% 29.87 in - South 13.8 mph - -   Overcast
9:00 PM 73.4 °F 71.6 °F 94% 29.86 in 5.0 mi South 13.8 mph - N/A Rain Light Rain
9:30 PM 73.4 °F 71.6 °F 94% 29.86 in 5.0 mi South 11.5 mph - N/A   Light Drizzle
9:49 PM 75.2 °F 71.6 °F 89% 29.86 in 5.0 mi South 12.7 mph - N/A   Light Drizzle
10:00 PM 74 °F 72 °F 90% 29.88 in - South 12.7 mph - -  
10:00 PM 75.2 °F 71.6 °F 89% 29.86 in 5.0 mi South 12.7 mph - N/A   Overcast
10:19 PM 73.4 °F 71.6 °F 94% 29.86 in 3.1 mi South 12.7 mph - N/A Rain Light Rain
10:30 PM 73.4 °F 71.6 °F 94% 29.86 in 3.1 mi SSE 11.5 mph - N/A Rain Light Rain
11:00 PM 73.4 °F 71.6 °F 94% 29.86 in 4.3 mi SSE 10.4 mph - N/A Rain Light Rain
11:30 PM 73.4 °F 71.6 °F 94% 29.86 in 5.0 mi South 9.2 mph - N/A Rain Light Rain
11:50 PM 73.4 °F 71.6 °F 94% 29.86 in 3.7 mi South 9.2 mph - N/A Rain Light Rain